This demonstration page uses our WeatherBlox Daily Observations layout. Learn more.

39.92423, -83.80882

Hourly Observations for June 23, 2017

Temp ( °F °C ) Dew Point ( °F °C ) Humidity (%) Winds ( mph kmh ) Pressure ( in mb ) Visibility ( mi km ) Precip ( " mm )
12:56 am 00:56 Cloudy 70 21.1 67 19.4 90 90 S 8 13 29.85 1011 10 16.0934 0 0
1:22 am 01:22 Cloudy with Light Rain 70 21 68 20 94 94 S 7 11 29.83 1010 10 16.0934 0 0.0254
1:44 am 01:44 Cloudy with Light Rain 70 21 68 20 94 94 SSE 8 13 29.83 1010 10 16.0934 0 0.0254
1:56 am 01:56 Cloudy with Light Rain 69 20.6 68 20 96 96 S 8 13 29.83 1010 10 16.0934 0 0.0254
2:56 am 02:56 Cloudy with Light Rain 70 21.1 69 20.6 97 97 SSW 9 15 29.8 1009 10 16.0934 0.06 1.524
3:56 am 03:56 Cloudy with Light Rain 71 21.7 70 21.1 96 96 SSW 10 17 29.77 1008 6 9.65604 0 0.0254
4:56 am 04:56 Cloudy with Light Rain 71 21.7 70 21.1 96 96 SW 12 19 29.76 1008 5 8.0467 0 0.0254
5:56 am 05:56 Cloudy with Mist and Fog 72 22.2 71 21.7 97 97 SW 9 15 29.75 1008 6 9.65604 0 0.0254
6:56 am 06:56 Cloudy 72 22.2 71 21.7 97 97 SSW 8 13 29.74 1007 8 12.87472 0 0.0254
7:08 am 07:08 Cloudy 72 22 72 22 100 100 SSW 9 15 29.74 1007 7 11.26538 0 0
7:26 am 07:26 Cloudy with Light Rain 72 22 72 22 100 100 SSW 9 15 29.71 1006 6 9.65604 0 0.0254
7:56 am 07:56 Cloudy 73 22.8 71 21.7 94 94 SW 8 13 29.73 1007 8 12.87472 0 0.0254
8:56 am 08:56 Cloudy with Light Rain 73 22.8 72 22.2 96 96 SW 10 17 29.73 1007 9 14.48406 0.01 0.254
9:45 am 09:45 Cloudy with Nearby Thunderstorms 73 23 72 22 94 94 SSW 13 20 29.68 1005 2.5 4.02335 0.24 6.096
9:52 am 09:52 Cloudy with Nearby Thunderstorms 73 23 72 22 94 94 SW 14 22 29.68 1005 3 4.82802 0.32 8.128
9:56 am 09:56 Cloudy with Nearby Thunderstorms 73 22.8 72 22.2 96 96 SW 16 26 29.73 1007 3 4.82802 0.39 9.906
10:04 am 10:04 Cloudy with Nearby Thunderstorms 73 23 72 22 94 94 SW 16 26 29.68 1005 3 4.82802 0.12 3.048
10:14 am 10:14 Cloudy with Nearby Thunderstorms 72 22 70 21 94 94 WSW 15 24 29.71 1006 4 6.43736 0.19 4.826
10:32 am 10:32 Cloudy with Nearby Thunderstorms 70 21 70 21 100 100 SW 12 19 29.71 1006 8 12.87472 0.27 6.858
10:40 am 10:40 Cloudy with Heavy Rain 70 21 70 21 100 100 SW 10 17 29.71 1006 5 8.0467 0.33 8.382
10:47 am 10:47 Cloudy with Nearby Thunderstorms 70 21 70 21 100 100 SW 17 28 29.71 1006 6 9.65604 0.39 9.906
10:56 am 10:56 Cloudy with Light Rain 71 21.7 70 21.1 96 96 WSW 14 22 29.72 1007 8 12.87472 0.41 10.414
11:03 am 11:03 Cloudy with Light Rain 72 22 70 21 94 94 SW 12 19 29.71 1006 10 16.0934 0 0.0254
11:17 am 11:17 Cloudy with Light Rain 72 22 70 21 94 94 SW 12 19 29.71 1006 6 9.65604 0.08 2.032
11:35 am 11:35 Cloudy with Light Rain 72 22 72 22 100 100 SSW 9 15 29.71 1006 10 16.0934 0.1 2.54
11:56 am 11:56 Cloudy with Rain 72 22.2 71 21.7 97 97 SW 13 20 29.71 1006 8 12.87472 0.16 4.064
12:12 pm 12:12 Cloudy with Light Rain 73 23 72 22 94 94 SW 13 20 29.68 1005 8 12.87472 0.01 0.254
12:56 pm 12:56 Cloudy with Heavy Rain 70 21.1 68 20 93 93 WNW 16 26 29.74 1007 2 3.21868 0.37 9.398
12:59 pm 12:59 Cloudy with Heavy Rain 68 20 66 19 94 94 WNW 14 22 29.74 1007 2 3.21868 0.06 1.524
1:06 pm 13:06 Cloudy with Heavy Rain 68 20 66 19 94 94 WNW 10 17 29.74 1007 3 4.82802 0.18 4.572
1:17 pm 13:17 Cloudy with Heavy Rain 68 20 66 19 94 94 W 9 15 29.74 1007 8 12.87472 0.24 6.096
1:25 pm 13:25 Cloudy with Rain 68 20 66 19 94 94 W 13 20 29.74 1007 7 11.26538 0.28 7.112
1:56 pm 13:56 Cloudy with Heavy Rain 68 20 67 19.4 96 96 W 10 17 29.75 1007 7 11.26538 0.38 9.652
2:03 pm 14:03 Cloudy with Heavy Rain 66 19 66 19 100 100 W 9 15 29.74 1007 6 9.65604 0.05 1.27
2:56 pm 14:56 Cloudy with Rain 67 19.4 67 19.4 100 100 Calm 29.74 1007 9 14.48406 0.28 7.112
3:16 pm 15:16 Cloudy with Heavy Rain 66 19 66 19 100 100 SSE 5 7 29.71 1006 2 3.21868 0.2 5.08
3:27 pm 15:27 Cloudy with Rain 66 19 66 19 100 100 WSW 3 6 29.71 1006 7 11.26538 0.23 5.842
3:56 pm 15:56 Cloudy with Rain 68 20 67 19.4 96 96 SW 8 13 29.73 1007 10 16.0934 0.31 7.874
4:56 pm 16:56 Cloudy with Rain 67 19.4 66 18.9 97 97 SW 7 11 29.71 1006 10 16.0934 0.06 1.524
5:02 pm 17:02 Cloudy with Rain 66 19 66 19 100 100 SW 6 9 29.71 1006 10 16.0934 0.01 0.254
5:27 pm 17:27 Cloudy with Rain 66 19 66 19 100 100 SW 6 9 29.71 1006 10 16.0934 0.05 1.27
5:35 pm 17:35 Cloudy with Rain 66 19 66 19 100 100 SW 6 9 29.68 1005 10 16.0934 0.06 1.524
5:43 pm 17:43 Cloudy with Rain 66 19 66 19 100 100 W 5 7 29.68 1005 10 16.0934 0.07 1.778
5:56 pm 17:56 Cloudy with Rain 68 20 67 19.4 96 96 WSW 6 9 29.7 1006 10 16.0934 0.09 2.286
6:23 pm 18:23 Cloudy with Light Rain 68 20 66 19 94 94 S 3 6 29.68 1005 10 16.0934 0.03 0.762
6:56 pm 18:56 Mostly Cloudy with Light Rain 67 19.4 67 19.4 100 100 S 5 7 29.7 1006 10 16.0934 0.04 1.016
7:11 pm 19:11 Mostly Cloudy 66 19 66 19 100 100 S 3 6 29.68 1005 10 16.0934 0 0.0254
7:32 pm 19:32 Mostly Cloudy 66 19 66 19 100 100 S 5 7 29.68 1005 10 16.0934 0 0.0254
7:42 pm 19:42 Mostly Cloudy 66 19 66 19 100 100 SW 6 9 29.71 1006 10 16.0934 0 0.0254
7:56 pm 19:56 Cloudy 67 19.4 67 19.4 100 100 SSW 3 6 29.72 1006 10 16.0934 0 0.0254
8:15 pm 20:15 Cloudy 66 19 66 19 100 100 SW 6 9 29.68 1005 10 16.0934 0 0
8:56 pm 20:56 Cloudy 67 19.4 67 19.4 100 100 SW 3 6 29.7 1006 10 16.0934 0 0
9:03 pm 21:03 Cloudy 66 19 66 19 100 100 SW 3 6 29.68 1005 10 16.0934 0 0
9:56 pm 21:56 Cloudy 67 19.4 67 19.4 100 100 WSW 5 7 29.74 1007 10 16.0934 0 0
10:11 pm 22:11 Cloudy with Light Rain 66 19 66 19 100 100 WSW 7 11 29.74 1007 4 6.43736 0 0.0254
10:19 pm 22:19 Cloudy with Light Rain 66 19 66 19 100 100 W 14 22 29.74 1007 8 12.87472 0 0.0254
10:41 pm 22:41 Cloudy 68 20 66 19 94 94 NW 7 11 29.77 1008 10 16.0934 0 0.0254
10:56 pm 22:56 Cloudy 68 20 67 19.4 96 96 WNW 8 13 29.79 1009 10 16.0934 0 0.0254
11:04 pm 23:04 Cloudy 68 20 66 19 94 94 WNW 8 13 29.77 1008 10 16.0934 0 0
11:56 pm 23:56 Clear 66 18.9 65 18.3 96 96 W 8 13 29.82 1010 10 16.0934 0 0

Powered by AerisWeather